TimeCEST,TemperatureF,Dew PointF,Humidity,Sea Level PressureIn,VisibilityMPH,Wind Direction,Wind SpeedMPH,Gust SpeedMPH,PrecipitationIn,Events,Conditions,WindDirDegrees,DateUTC
12:55 AM,50.0,42.8,76,30.21,6.2,WSW,13.8,-,N/A,,Mostly Cloudy,240,2012-09-29 22:55:00
1:55 AM,50.0,39.2,66,30.21,6.2,WSW,13.8,-,N/A,,Scattered Clouds,240,2012-09-29 23:55:00
2:00 AM,50,39,56,,12,WSW,13.8,,,,Partly Cloudy,240,2012-09-30 00:00:00
2:55 AM,50.0,39.2,66,30.21,6.2,WSW,13.8,-,N/A,,Scattered Clouds,240,2012-09-30 00:55:00
3:55 AM,50.0,42.8,76,30.21,6.2,WSW,13.8,-,N/A,,Scattered Clouds,240,2012-09-30 01:55:00
4:55 AM,50.0,41.0,71,30.21,6.2,WSW,11.5,-,N/A,,Scattered Clouds,240,2012-09-30 02:55:00
5:55 AM,50.0,44.6,82,30.21,6.2,WSW,11.5,-,N/A,,Scattered Clouds,240,2012-09-30 03:55:00
6:55 AM,50.0,46.4,87,30.21,-9999.0,WSW,17.3,-,N/A,,Clear,240,2012-09-30 04:55:00
7:55 AM,48.2,46.4,93,30.21,-9999.0,WSW,13.8,-,N/A,,Clear,240,2012-09-30 05:55:00
8:00 AM,49,47,88,,12,WSW,13.8,,,,,240,2012-09-30 06:00:00
8:55 AM,48.2,46.4,93,30.21,6.2,WSW,13.8,-,N/A,,Scattered Clouds,240,2012-09-30 06:55:00
9:55 AM,50.0,46.4,87,30.21,6.2,WSW,13.8,-,N/A,,Scattered Clouds,240,2012-09-30 07:55:00
10:55 AM,50.0,44.6,82,30.24,-9999.0,WSW,9.2,-,N/A,,Clear,240,2012-09-30 08:55:00
11:55 AM,51.8,46.4,82,30.24,6.2,WSW,9.2,-,N/A,,Scattered Clouds,240,2012-09-30 09:55:00
12:55 PM,53.6,46.4,77,30.27,6.2,WSW,9.2,-,N/A,,Scattered Clouds,240,2012-09-30 10:55:00
1:55 PM,55.4,44.6,67,30.27,6.2,WSW,9.2,-,N/A,,Scattered Clouds,240,2012-09-30 11:55:00
2:00 PM,55,44,58,,12,WSW,9.2,,,,Partly Cloudy,240,2012-09-30 12:00:00
2:55 PM,55.4,50.0,82,30.27,6.2,WSW,8.1,-,N/A,,Mostly Cloudy,240,2012-09-30 12:55:00
3:55 PM,53.6,48.2,82,30.27,6.2,WSW,9.2,-,N/A,,Overcast,240,2012-09-30 13:55:00
4:55 PM,53.6,51.8,94,30.21,0.0,WSW,20.7,-,N/A,Fog-Rain-Thunderstorm,Light Thunderstorms and Rain,240,2012-09-30 14:55:00
5:55 PM,50.0,50.0,100,30.21,0.0,WSW,13.8,-,N/A,Fog-Rain-Thunderstorm,Light Thunderstorms and Rain,240,2012-09-30 15:55:00
6:55 PM,50.0,48.2,94,30.18,0.0,WSW,16.1,-,N/A,Fog-Rain-Thunderstorm,Light Thunderstorms and Rain,240,2012-09-30 16:55:00
7:55 PM,48.2,48.2,100,30.18,0.0,WSW,29.9,-,N/A,Fog-Rain-Thunderstorm,Light Thunderstorms and Rain,240,2012-09-30 17:55:00
8:00 PM,49,48,93,,0,WSW,29.9,,,Rain-Thunderstorm,Thunderstorms and Rain,240,2012-09-30 18:00:00
8:55 PM,44.6,44.6,100,30.18,0.0,WSW,28.8,-,N/A,Fog-Rain-Thunderstorm,Light Thunderstorms and Rain,240,2012-09-30 18:55:00
9:55 PM,44.6,42.8,93,30.18,0.0,WSW,25.3,-,N/A,Fog-Rain,Light Rain,240,2012-09-30 19:55:00
10:55 PM,44.6,39.2,81,30.15,6.2,WSW,17.3,-,N/A,Rain,Light Rain,240,2012-09-30 20:55:00
11:55 PM,44.6,42.8,93,30.15,0.0,WSW,20.7,-,N/A,Fog-Rain,Light Rain,240,2012-09-30 21:55:00